This is the latest recevied weather packets stored in our database for station/object FRA001-13. If no packets are shown the sender has not sent any weather packets the latest 1 day(s).
| Time | Temp. | Humidity | Pressure | Rain* | Wind** | Luminosity | Snow |
|---|---|---|---|---|---|---|---|
| 1778155203 | 18.33° C | 63% | 1012.1 hPa | 0 mm | - | 810 W/m² | - |
| 1778154904 | 18.89° C | 61% | 1012.1 hPa | 0 mm | - | 806 W/m² | - |
| 1778154603 | 18.33° C | 64% | 1012.3 hPa | 0 mm | - | 798 W/m² | - |
| 1778154304 | 17.78° C | 66% | 1012.3 hPa | 0 mm | - | 797 W/m² | - |
| 1778154003 | 18.33° C | 59% | 1012.4 hPa | 0 mm | - | 787 W/m² | - |
| 1778153703 | 18.33° C | 63% | 1012.2 hPa | 0 mm | - | 801 W/m² | - |
| 1778153403 | 18.33° C | 64% | 1012.5 hPa | 0 mm | - | 802 W/m² | - |
| 1778153104 | 17.78° C | 63% | 1012.7 hPa | 0 mm | - | 801 W/m² | - |
| 1778152804 | 17.78° C | 63% | 1012.6 hPa | 0 mm | - | 788 W/m² | - |
| 1778152503 | 17.78° C | 62% | 1012.6 hPa | 0 mm | - | 794 W/m² | - |
| 1778152203 | 17.78° C | 64% | 1012.7 hPa | 0 mm | - | 788 W/m² | - |
| 1778151903 | 17.78° C | 62% | 1012.9 hPa | 0 mm | - | 778 W/m² | - |
| 1778151603 | 17.22° C | 66% | 1012.8 hPa | 0 mm | - | 761 W/m² | - |
| 1778151303 | 17.78° C | 69% | 1012.7 hPa | 0 mm | - | 744 W/m² | - |
| 1778151003 | 17.78° C | 69% | 1012.8 hPa | 0 mm | - | 752 W/m² | - |
| 1778150703 | 17.22° C | 68% | 1013 hPa | 0 mm | - | 763 W/m² | - |
| 1778150403 | 16.67° C | 67% | 1012.9 hPa | 0 mm | - | 762 W/m² | - |
| 1778150104 | 16.67° C | 65% | 1013 hPa | 0 mm | - | 759 W/m² | - |
| 1778149803 | 16.67° C | 65% | 1012.9 hPa | 0 mm | - | 760 W/m² | - |
| 1778149505 | 17.22° C | 67% | 1013.2 hPa | 0 mm | - | 750 W/m² | - |
| 1778149204 | 16.67° C | 69% | 1013.1 hPa | 0 mm | - | 729 W/m² | - |
| 1778148903 | 16.11° C | 70% | 1013.1 hPa | 0 mm | - | 741 W/m² | - |
| 1778148603 | 16.67° C | 67% | 1013 hPa | 0 mm | - | 711 W/m² | - |
| 1778148303 | 16.67° C | 68% | 1013.4 hPa | 0 mm | - | 700 W/m² | - |
| 1778148003 | 16.11° C | 69% | 1013.2 hPa | 0 mm | - | 699 W/m² | - |
* Rain latest hour (hover to see other rain measurements)
** Current wind speed in m/s (hover to see current wind gust speed)